,,,PA_Meas_PMT16A,,PR_Meas_QMR101_102,,RH_Meas_QMH101,,SR_Meas_QMS101,,TA_Meas_QMH101,,GenWind,,GenWind,
date,time,status,PA,status,PR,status,RH,status,SR,status,TA,status,DirAvg,status,SpdAvg,
2009-02-02, 00:00:04,VALID,1009.87,VALID,0,VALID,91.387,VALID,0.105969,VALID,22.6597,VALID,300,VALID,0,
2009-02-02, 00:01:04,VALID,1009.84,VALID,0,VALID,91.387,VALID,0,VALID,22.6792,VALID,300,VALID,0,
2009-02-02, 00:02:04,VALID,1009.82,VALID,0,VALID,91.3794,VALID,0.105969,VALID,22.6792,VALID,300,VALID,0,
2009-02-02, 00:03:04,VALID,1009.79,VALID,0,VALID,91.3642,VALID,0.105969,VALID,22.6597,VALID,300,VALID,0,
2009-02-02, 00:04:04,VALID,1009.8,VALID,0,VALID,91.3718,VALID,0,VALID,22.6597,VALID,300,VALID,0,
2009-02-02, 00:05:04,VALID,1009.78,VALID,0,VALID,91.3947,VALID,0.105969,VALID,22.6597,VALID,300,VALID,0,
2009-02-02, 00:06:04,VALID,1009.77,VALID,0,VALID,91.3947,VALID,0.105969,VALID,22.6792,VALID,300,VALID,0,
2009-02-02, 00:07:04,VALID,1009.76,VALID,0,VALID,91.4099,VALID,0,VALID,22.6385,VALID,300,VALID,0,
2009-02-02, 00:08:04,VALID,1009.74,VALID,0,VALID,91.3794,VALID,0,VALID,22.6597,VALID,300,VALID,0,
2009-02-02, 00:09:04,VALID,1009.71,VALID,0,VALID,91.3947,VALID,0,VALID,22.6614,VALID,300,VALID,0,
2009-02-02, 00:10:04,VALID,1009.71,VALID,0,VALID,91.4023,VALID,0.105969,VALID,22.6402,VALID,300,VALID,0,
2009-02-02, 00:11:04,VALID,1009.71,VALID,0,VALID,91.4099,VALID,0,VALID,22.642,VALID,300,VALID,0,
2009-02-02, 00:12:04,VALID,1009.7,VALID,0,VALID,91.4023,VALID,0,VALID,22.642,VALID,300,VALID,0,
2009-02-02, 00:13:04,VALID,1009.71,VALID,0,VALID,91.4099,VALID,0,VALID,22.6826,VALID,300,VALID,0,
2009-02-02, 00:14:04,VALID,1009.69,VALID,0,VALID,91.4099,VALID,0,VALID,22.6632,VALID,300,VALID,0,
2009-02-02, 00:15:04,VALID,1009.68,VALID,0,VALID,91.3947,VALID,0,VALID,22.642,VALID,300,VALID,0,
2009-02-02, 00:16:04,VALID,1009.67,VALID,0,VALID,91.4175,VALID,0,VALID,22.6614,VALID,300,VALID,0,
2009-02-02, 00:17:04,VALID,1009.64,VALID,0,VALID,91.4023,VALID,0,VALID,22.6225,VALID,300,VALID,0,
2009-02-02, 00:18:04,VALID,1009.64,VALID,0,VALID,91.4252,VALID,0,VALID,22.6225,VALID,300,VALID,0,
2009-02-02, 00:19:04,VALID,1009.61,VALID,0,VALID,91.4175,VALID,0,VALID,22.603,VALID,300,VALID,0,
2009-02-02, 00:20:04,VALID,1009.6,VALID,0,VALID,91.4252,VALID,0,VALID,22.6047,VALID,300,VALID,0,
2009-02-02, 00:21:04,VALID,1009.59,VALID,0,VALID,91.4099,VALID,0,VALID,22.564,VALID,300,VALID,0,
2009-02-02, 00:22:04,VALID,1009.59,VALID,0,VALID,91.4175,VALID,0,VALID,22.5658,VALID,300,VALID,0,
2009-02-02, 00:23:04,VALID,1009.56,VALID,0,VALID,91.4175,VALID,0,VALID,22.5251,VALID,300,VALID,0,
2009-02-02, 00:24:04,VALID,1009.55,VALID,0,VALID,91.4099,VALID,0,VALID,22.5056,VALID,300,VALID,0,
2009-02-02, 00:25:04,VALID,1009.55,VALID,0,VALID,91.4252,VALID,0,VALID,22.5056,VALID,300,VALID,0,
2009-02-02, 00:26:04,VALID,1009.55,VALID,0,VALID,91.4099,VALID,0,VALID,22.5056,VALID,300,VALID,0,
2009-02-02, 00:27:04,VALID,1009.53,VALID,0,VALID,91.4099,VALID,0,VALID,22.4844,VALID,300,VALID,0,
2009-02-02, 00:28:04,VALID,1009.55,VALID,0,VALID,91.4175,VALID,0,VALID,22.465,VALID,300,VALID,0,
2009-02-02, 00:29:04,VALID,1009.54,VALID,0,VALID,91.4252,VALID,0,VALID,22.426,VALID,300,VALID,0,
2009-02-02, 00:30:04,VALID,1009.52,VALID,0,VALID,91.4252,VALID,0,VALID,22.4472,VALID,300,VALID,0,
2009-02-02, 00:31:04,VALID,1009.52,VALID,0,VALID,91.4099,VALID,0,VALID,22.4277,VALID,300,VALID,0,
2009-02-02, 00:32:04,VALID,1009.5,VALID,0,VALID,91.4404,VALID,0,VALID,22.4065,VALID,300,VALID,0,
2009-02-02, 00:33:04,VALID,1009.46,VALID,0,VALID,91.448,VALID,0,VALID,22.4082,VALID,300,VALID,0,
2009-02-02, 00:34:04,VALID,1009.44,VALID,0,VALID,91.4404,VALID,0,VALID,22.3481,VALID,300,VALID,0,
2009-02-02, 00:35:04,VALID,1009.46,VALID,0,VALID,91.4328,VALID,0,VALID,22.3676,VALID,300,VALID,0,
2009-02-02, 00:36:04,VALID,1009.43,VALID,0,VALID,91.4404,VALID,0,VALID,22.3693,VALID,300,VALID,0,
2009-02-02, 00:37:04,VALID,1009.43,VALID,0,VALID,91.4404,VALID,0,VALID,22.3481,VALID,300,VALID,0,
2009-02-02, 00:38:04,VALID,1009.44,VALID,0,VALID,91.4404,VALID,0,VALID,22.3693,VALID,300,VALID,0,
2009-02-02, 00:39:04,VALID,1009.41,VALID,0,VALID,91.448,VALID,0,VALID,22.3693,VALID,300,VALID,0,
2009-02-02, 00:40:04,VALID,1009.43,VALID,0,VALID,91.448,VALID,0,VALID,22.3286,VALID,300,VALID,0,
2009-02-02, 00:41:04,VALID,1009.42,VALID,0,VALID,91.4557,VALID,0,VALID,22.3693,VALID,300,VALID,0,
2009-02-02, 00:42:04,VALID,1009.42,VALID,0,VALID,91.4633,VALID,0,VALID,22.3693,VALID,300,VALID,0,
2009-02-02, 00:43:04,VALID,1009.43,VALID,0,VALID,91.4557,VALID,0,VALID,22.3481,VALID,300,VALID,0,
2009-02-02, 00:44:04,VALID,1009.43,VALID,0,VALID,91.4633,VALID,0,VALID,22.3693,VALID,300,VALID,0,
2009-02-02, 00:45:04,VALID,1009.44,VALID,0,VALID,91.4404,VALID,0,VALID,22.3286,VALID,300,VALID,0,
2009-02-02, 00:46:04,VALID,1009.41,VALID,0,VALID,91.4557,VALID,0,VALID,22.3498,VALID,300,VALID,0,
2009-02-02, 00:47:04,VALID,1009.41,VALID,0,VALID,91.4709,VALID,0,VALID,22.3498,VALID,300,VALID,0,
2009-02-02, 00:48:04,VALID,1009.39,VALID,0,VALID,91.4709,VALID,0,VALID,22.3108,VALID,300,VALID,0,
2009-02-02, 00:49:04,VALID,1009.37,VALID,0,VALID,91.4633,VALID,0,VALID,22.3091,VALID,300,VALID,0,
2009-02-02, 00:50:04,VALID,1009.36,VALID,0,VALID,91.4633,VALID,0,VALID,22.3091,VALID,300,VALID,0,
2009-02-02, 00:51:04,VALID,1009.34,VALID,0,VALID,91.4633,VALID,0,VALID,22.3108,VALID,300,VALID,0,
2009-02-02, 00:52:04,VALID,1009.33,VALID,0,VALID,91.4785,VALID,0,VALID,22.2702,VALID,300,VALID,0,
2009-02-02, 00:53:04,VALID,1009.33,VALID,0,VALID,91.4633,VALID,0,VALID,22.2524,VALID,300,VALID,0,
2009-02-02, 00:54:04,VALID,1009.3,VALID,0,VALID,91.4633,VALID,0,VALID,22.2524,VALID,300,VALID,0,
2009-02-02, 00:55:04,VALID,1009.29,VALID,0,VALID,91.4938,VALID,0,VALID,22.2312,VALID,300,VALID,0,
2009-02-02, 00:56:04,VALID,1009.27,VALID,0,VALID,91.4785,VALID,0.105969,VALID,22.2329,VALID,300,VALID,0,
2009-02-02, 00:57:04,VALID,1009.25,VALID,0,VALID,91.4709,VALID,0,VALID,22.1923,VALID,300,VALID,0,
2009-02-02, 00:58:04,VALID,1009.28,VALID,0,VALID,91.4862,VALID,0,VALID,22.1923,VALID,300,VALID,0,
2009-02-02, 00:59:04,VALID,1009.27,VALID,0,VALID,91.4709,VALID,0,VALID,22.1728,VALID,300,VALID,0,
2009-02-02, 01:00:04,VALID,1009.29,VALID,0,VALID,91.4862,VALID,0,VALID,22.1728,VALID,300,VALID,0,
2009-02-02, 01:01:04,VALID,1009.27,VALID,0,VALID,91.4938,VALID,0,VALID,22.2118,VALID,300,VALID,0,
2009-02-02, 01:02:04,VALID,1009.28,VALID,0,VALID,91.4709,VALID,0,VALID,22.1728,VALID,300,VALID,0,
2009-02-02, 01:03:04,VALID,1009.29,VALID,0,VALID,91.4938,VALID,0,VALID,22.1923,VALID,300,VALID,0,
2009-02-02, 01:04:04,VALID,1009.27,VALID,0,VALID,91.4785,VALID,0,VALID,22.2134,VALID,300,VALID,0,
2009-02-02, 01:05:04,VALID,1009.26,VALID,0,VALID,91.4785,VALID,0,VALID,22.1728,VALID,300,VALID,0,
2009-02-02, 01:06:04,VALID,1009.24,VALID,0,VALID,91.5014,VALID,0,VALID,22.1728,VALID,300,VALID,0,
2009-02-02, 01:07:04,VALID,1009.23,VALID,0,VALID,91.4862,VALID,0,VALID,22.194,VALID,300,VALID,0,
2009-02-02, 01:08:04,VALID,1009.22,VALID,0,VALID,91.509,VALID,0,VALID,22.194,VALID,300,VALID,0,
2009-02-02, 01:09:04,VALID,1009.18,VALID,0,VALID,91.4938,VALID,0,VALID,22.1745,VALID,300,VALID,0,
2009-02-02, 01:10:04,VALID,1009.16,VALID,0,VALID,91.5167,VALID,0.105969,VALID,22.194,VALID,300,VALID,0,
2009-02-02, 01:11:04,VALID,1009.15,VALID,0,VALID,91.5014,VALID,0,VALID,22.194,VALID,300,VALID,0,
2009-02-02, 01:12:04,VALID,1009.12,VALID,0,VALID,91.5014,VALID,0,VALID,22.1339,VALID,300,VALID,0,
2009-02-02, 01:13:04,VALID,1009.11,VALID,0,VALID,91.5167,VALID,0,VALID,22.1745,VALID,300,VALID,0,
2009-02-02, 01:14:04,VALID,1009.11,VALID,0,VALID,91.5014,VALID,0,VALID,22.1533,VALID,300,VALID,0,
2009-02-02, 01:15:04,VALID,1009.12,VALID,0,VALID,91.5167,VALID,0,VALID,22.1339,VALID,300,VALID,0,
2009-02-02, 01:16:04,VALID,1009.1,VALID,0,VALID,91.5243,VALID,0,VALID,22.1339,VALID,300,VALID,0,
2009-02-02, 01:17:04,VALID,1009.11,VALID,0,VALID,91.5167,VALID,0,VALID,22.1339,VALID,300,VALID,0,
2009-02-02, 01:18:04,VALID,1009.1,VALID,0,VALID,91.5243,VALID,0,VALID,22.1339,VALID,300,VALID,0,
2009-02-02, 01:19:04,VALID,1009.12,VALID,0,VALID,91.509,VALID,0.105969,VALID,22.1533,VALID,300,VALID,0,
2009-02-02, 01:20:04,VALID,1009.14,VALID,0,VALID,91.5319,VALID,0,VALID,22.155,VALID,300,VALID,0,
2009-02-02, 01:21:04,VALID,1009.13,VALID,0,VALID,91.5395,VALID,0,VALID,22.1339,VALID,300,VALID,0,
2009-02-02, 01:22:04,VALID,1009.14,VALID,0,VALID,91.5472,VALID,0,VALID,22.1339,VALID,300,VALID,0,
2009-02-02, 01:23:04,VALID,1009.14,VALID,0,VALID,91.5319,VALID,0,VALID,22.1745,VALID,300,VALID,0,
2009-02-02, 01:24:04,VALID,1009.09,VALID,0,VALID,91.5319,VALID,0,VALID,22.1728,VALID,300,VALID,0,
2009-02-02, 01:25:04,VALID,1009.06,VALID,0,VALID,91.5395,VALID,0,VALID,22.1745,VALID,300,VALID,0,
2009-02-02, 01:26:04,VALID,1009.02,VALID,0,VALID,91.5472,VALID,0,VALID,22.1728,VALID,300,VALID,0,
2009-02-02, 01:27:04,VALID,1008.99,VALID,0,VALID,91.57,VALID,0,VALID,22.1728,VALID,300,VALID,0,
2009-02-02, 01:28:04,VALID,1009.01,VALID,0,VALID,91.5472,VALID,0,VALID,22.1728,VALID,300,VALID,0,
2009-02-02, 01:29:04,VALID,1009,VALID,0,VALID,91.5472,VALID,0,VALID,22.1533,VALID,300,VALID,0,
2009-02-02, 01:30:04,VALID,1008.95,VALID,0,VALID,91.57,VALID,0,VALID,22.155,VALID,300,VALID,0,
2009-02-02, 01:31:04,VALID,1008.95,VALID,0,VALID,91.5472,VALID,0,VALID,22.0949,VALID,300,VALID,0,
2009-02-02, 01:32:04,VALID,1008.94,VALID,0,VALID,91.5777,VALID,0,VALID,22.1161,VALID,300,VALID,0,
2009-02-02, 01:33:04,VALID,1008.94,VALID,0,VALID,91.5624,VALID,0,VALID,22.1161,VALID,300,VALID,0,
2009-02-02, 01:34:04,VALID,1008.92,VALID,0,VALID,91.5777,VALID,0,VALID,22.1144,VALID,301,VALID,0,
2009-02-02, 01:35:04,VALID,1008.91,VALID,0,VALID,91.5624,VALID,0,VALID,22.1355,VALID,301,VALID,0,
2009-02-02, 01:36:04,VALID,1008.91,VALID,0,VALID,91.5777,VALID,0,VALID,22.0949,VALID,301,VALID,0,
2009-02-02, 01:37:04,VALID,1008.92,VALID,0,VALID,91.5853,VALID,0.105969,VALID,22.1144,VALID,301,VALID,0,
2009-02-02, 01:38:04,VALID,1008.91,VALID,0,VALID,91.5929,VALID,0.105969,VALID,22.0949,VALID,301,VALID,0,
2009-02-02, 01:39:04,VALID,1008.91,VALID,0,VALID,91.5853,VALID,0,VALID,22.0754,VALID,301,VALID,0,
2009-02-02, 01:40:04,VALID,1008.9,VALID,0,VALID,91.5777,VALID,0.105969,VALID,22.0771,VALID,301,VALID,0,
2009-02-02, 01:41:04,VALID,1008.89,VALID,0,VALID,91.5853,VALID,0,VALID,22.056,VALID,301,VALID,0,
2009-02-02, 01:42:04,VALID,1008.88,VALID,0,VALID,91.5777,VALID,0,VALID,22.0365,VALID,301,VALID,0,
2009-02-02, 01:43:04,VALID,1008.89,VALID,0,VALID,91.5929,VALID,0,VALID,22.0576,VALID,301,VALID,0,
2009-02-02, 01:44:04,VALID,1008.88,VALID,0,VALID,91.5853,VALID,0,VALID,22.0365,VALID,301,VALID,0,
2009-02-02, 01:45:04,VALID,1008.86,VALID,0,VALID,91.6005,VALID,0,VALID,22.056,VALID,301,VALID,0,
2009-02-02, 01:46:04,VALID,1008.86,VALID,0,VALID,91.5853,VALID,0,VALID,22.056,VALID,301,VALID,0,
2009-02-02, 01:47:04,VALID,1008.85,VALID,0,VALID,91.6005,VALID,0,VALID,22.056,VALID,301,VALID,0,
2009-02-02, 01:48:04,VALID,1008.85,VALID,0,VALID,91.6005,VALID,0,VALID,22.0382,VALID,301,VALID,0,
2009-02-02, 01:49:04,VALID,1008.82,VALID,0,VALID,91.5929,VALID,0.105969,VALID,22.0365,VALID,301,VALID,0,
2009-02-02, 01:50:04,VALID,1008.82,VALID,0,VALID,91.6005,VALID,0,VALID,22.0365,VALID,301,VALID,0,
2009-02-02, 01:51:04,VALID,1008.83,VALID,0,VALID,91.5777,VALID,0.105969,VALID,22.0365,VALID,301,VALID,0,
2009-02-02, 01:52:04,VALID,1008.78,VALID,0,VALID,91.5853,VALID,0,VALID,22.0576,VALID,301,VALID,0,
2009-02-02, 01:53:04,VALID,1008.81,VALID,0,VALID,91.6005,VALID,0,VALID,22.0382,VALID,301,VALID,0,
2009-02-02, 01:54:04,VALID,1008.79,VALID,0,VALID,91.6082,VALID,0,VALID,22.017,VALID,301,VALID,0,
2009-02-02, 01:55:04,VALID,1008.8,VALID,0,VALID,91.6082,VALID,0,VALID,22.017,VALID,301,VALID,0,
2009-02-02, 01:56:04,VALID,1008.81,VALID,0,VALID,91.5929,VALID,0,VALID,22.0382,VALID,301,VALID,0,
2009-02-02, 01:57:04,VALID,1008.8,VALID,0,VALID,91.6082,VALID,0,VALID,22.0382,VALID,301,VALID,0,
2009-02-02, 01:58:04,VALID,1008.82,VALID,0,VALID,91.6005,VALID,0,VALID,22.0576,VALID,301,VALID,0,
2009-02-02, 01:59:04,VALID,1008.8,VALID,0,VALID,91.6234,VALID,0,VALID,22.0593,VALID,301,VALID,0,
2009-02-02, 02:00:04,VALID,1008.8,VALID,0,VALID,91.6158,VALID,0,VALID,22.0576,VALID,301,VALID,0,
2009-02-02, 02:01:04,VALID,1008.81,VALID,0,VALID,91.6234,VALID,0,VALID,22.0382,VALID,301,VALID,0,
2009-02-02, 02:02:04,VALID,1008.82,VALID,0,VALID,91.6158,VALID,0,VALID,22.0576,VALID,301,VALID,0,
2009-02-02, 02:03:04,VALID,1008.83,VALID,0,VALID,91.6234,VALID,0,VALID,22.0771,VALID,301,VALID,0,
2009-02-02, 02:04:04,VALID,1008.83,VALID,0,VALID,91.6158,VALID,0,VALID,22.0382,VALID,295,VALID,0,
2009-02-02, 02:05:04,VALID,1008.86,VALID,0,VALID,91.6158,VALID,0,VALID,22.056,VALID,295,VALID,0,
2009-02-02, 02:06:04,VALID,1008.88,VALID,0,VALID,91.6082,VALID,0,VALID,22.0771,VALID,295,VALID,0,
2009-02-02, 02:07:04,VALID,1008.86,VALID,0,VALID,91.6158,VALID,0,VALID,22.056,VALID,295,VALID,0,
2009-02-02, 02:08:04,VALID,1008.85,VALID,0,VALID,91.6082,VALID,0,VALID,22.0771,VALID,295,VALID,0,
2009-02-02, 02:09:04,VALID,1008.89,VALID,0,VALID,91.6311,VALID,0,VALID,22.0771,VALID,295,VALID,0,
2009-02-02, 02:10:04,VALID,1008.87,VALID,0,VALID,91.6387,VALID,0,VALID,22.0365,VALID,295,VALID,0,
2009-02-02, 02:11:04,VALID,1008.87,VALID,0,VALID,91.6158,VALID,0,VALID,22.0382,VALID,295,VALID,0,
2009-02-02, 02:12:04,VALID,1008.86,VALID,0,VALID,91.6158,VALID,0,VALID,22.0187,VALID,295,VALID,0,
2009-02-02, 02:13:04,VALID,1008.83,VALID,0,VALID,91.6539,VALID,0,VALID,22.0382,VALID,295,VALID,0,
2009-02-02, 02:14:04,VALID,1008.84,VALID,0,VALID,91.6539,VALID,0,VALID,22.0966,VALID,302,VALID,0,
2009-02-02, 02:15:04,VALID,1008.83,VALID,0,VALID,91.6234,VALID,0,VALID,22.1355,VALID,339,VALID,0,
2009-02-02, 02:16:04,VALID,1008.82,VALID,0,VALID,91.6234,VALID,0,VALID,22.0771,VALID,339,VALID,0,
2009-02-02, 02:17:04,VALID,1008.83,VALID,0,VALID,91.6234,VALID,0,VALID,22.0754,VALID,351,VALID,0,
2009-02-02, 02:18:04,VALID,1008.84,VALID,0,VALID,91.6387,VALID,0,VALID,22.0576,VALID,351,VALID,0,
2009-02-02, 02:19:04,VALID,1008.84,VALID,0,VALID,91.6539,VALID,0,VALID,22.0187,VALID,351,VALID,0,
2009-02-02, 02:20:04,VALID,1008.81,VALID,0,VALID,91.6387,VALID,0,VALID,22.0382,VALID,337,VALID,0,
2009-02-02, 02:21:05,VALID,1008.79,VALID,0,VALID,91.6616,VALID,0,VALID,22.0365,VALID,337,VALID,0,
2009-02-02, 02:22:05,VALID,1008.82,VALID,0,VALID,91.6387,VALID,0,VALID,22.0576,VALID,336,VALID,0,
2009-02-02, 02:23:05,VALID,1008.81,VALID,0,VALID,91.6387,VALID,0,VALID,22.0187,VALID,19,VALID,0,
2009-02-02, 02:24:05,VALID,1008.81,VALID,0,VALID,91.6387,VALID,0,VALID,22.0187,VALID,27,VALID,0,
2009-02-02, 02:25:05,VALID,1008.8,VALID,0,VALID,91.6387,VALID,0,VALID,21.9992,VALID,27,VALID,0,
2009-02-02, 02:26:05,VALID,1008.79,VALID,0,VALID,91.6387,VALID,0,VALID,21.9992,VALID,27,VALID,0,
2009-02-02, 02:27:05,VALID,1008.8,VALID,0,VALID,91.6539,VALID,0,VALID,21.9603,VALID,27,VALID,0,
2009-02-02, 02:28:05,VALID,1008.82,VALID,0,VALID,91.6539,VALID,0,VALID,21.9603,VALID,27,VALID,0,
2009-02-02, 02:29:05,VALID,1008.81,VALID,0,VALID,91.6539,VALID,0,VALID,21.9797,VALID,27,VALID,0,
2009-02-02, 02:30:05,VALID,1008.86,VALID,0,VALID,91.6692,VALID,0,VALID,21.9797,VALID,27,VALID,0,
2009-02-02, 02:31:05,VALID,1008.87,VALID,0,VALID,91.6616,VALID,0,VALID,21.9797,VALID,27,VALID,0,
2009-02-02, 02:32:05,VALID,1008.85,VALID,0,VALID,91.6844,VALID,0,VALID,22.0187,VALID,27,VALID,0,
2009-02-02, 02:33:05,VALID,1008.86,VALID,0,VALID,91.6539,VALID,0,VALID,21.9586,VALID,27,VALID,0,
2009-02-02, 02:34:05,VALID,1008.86,VALID,0,VALID,91.6692,VALID,0,VALID,21.9603,VALID,27,VALID,0,
2009-02-02, 02:35:05,VALID,1008.88,VALID,0,VALID,91.6692,VALID,0,VALID,21.9797,VALID,27,VALID,0,
2009-02-02, 02:36:05,VALID,1008.9,VALID,0,VALID,91.6616,VALID,0,VALID,21.9797,VALID,27,VALID,0,
2009-02-02, 02:37:05,VALID,1008.91,VALID,0,VALID,91.6692,VALID,0,VALID,21.9391,VALID,27,VALID,0,
2009-02-02, 02:38:05,VALID,1008.91,VALID,0,VALID,91.6692,VALID,0,VALID,21.9797,VALID,27,VALID,0,
2009-02-02, 02:39:05,VALID,1008.89,VALID,0,VALID,91.6616,VALID,0,VALID,21.9797,VALID,27,VALID,0,
2009-02-02, 02:40:05,VALID,1008.88,VALID,0,VALID,91.6463,VALID,0,VALID,21.9781,VALID,27,VALID,0,
2009-02-02, 02:41:05,VALID,1008.87,VALID,0,VALID,91.6768,VALID,0,VALID,21.9992,VALID,27,VALID,0,
2009-02-02, 02:42:05,VALID,1008.87,VALID,0,VALID,91.6692,VALID,0,VALID,21.9797,VALID,27,VALID,0,
2009-02-02, 02:43:05,VALID,1008.89,VALID,0,VALID,91.6692,VALID,0,VALID,21.9781,VALID,27,VALID,0,
2009-02-02, 02:44:05,VALID,1008.89,VALID,0,VALID,91.6616,VALID,0,VALID,21.9975,VALID,27,VALID,0,
2009-02-02, 02:45:05,VALID,1008.88,VALID,0,VALID,91.6692,VALID,0,VALID,21.9797,VALID,27,VALID,0,
2009-02-02, 02:46:05,VALID,1008.91,VALID,0,VALID,91.6844,VALID,0,VALID,21.9781,VALID,27,VALID,0,
2009-02-02, 02:47:05,VALID,1008.92,VALID,0,VALID,91.6616,VALID,0,VALID,21.9781,VALID,27,VALID,0,
2009-02-02, 02:48:05,VALID,1008.93,VALID,0,VALID,91.6768,VALID,0,VALID,21.9781,VALID,27,VALID,0,
2009-02-02, 02:49:05,VALID,1008.95,VALID,0,VALID,91.6539,VALID,0,VALID,22.0187,VALID,27,VALID,0,
2009-02-02, 02:50:05,VALID,1008.96,VALID,0,VALID,91.6616,VALID,0,VALID,21.9975,VALID,27,VALID,0,
2009-02-02, 02:51:05,VALID,1008.95,VALID,0,VALID,91.6616,VALID,0,VALID,21.9992,VALID,27,VALID,0,
2009-02-02, 02:52:05,VALID,1008.95,VALID,0,VALID,91.6616,VALID,0,VALID,22.0187,VALID,27,VALID,0,
2009-02-02, 02:53:05,VALID,1008.95,VALID,0,VALID,91.6844,VALID,0,VALID,21.9975,VALID,27,VALID,0,
2009-02-02, 02:54:05,VALID,1008.95,VALID,0,VALID,91.6616,VALID,0,VALID,22.017,VALID,27,VALID,0,
2009-02-02, 02:55:05,VALID,1008.96,VALID,0,VALID,91.6768,VALID,0,VALID,22.0187,VALID,27,VALID,0,
2009-02-02, 02:56:05,VALID,1008.99,VALID,0,VALID,91.6616,VALID,0.105969,VALID,21.9975,VALID,27,VALID,0,
2009-02-02, 02:57:05,VALID,1009.01,VALID,0,VALID,91.6844,VALID,0,VALID,22.0187,VALID,349,VALID,0.531641,
2009-02-02, 02:58:05,VALID,1008.97,VALID,0,VALID,91.6844,VALID,0,VALID,22.0576,VALID,333,VALID,0,
2009-02-02, 02:59:05,VALID,1008.98,VALID,0,VALID,91.6616,VALID,0,VALID,22.0365,VALID,333,VALID,0,
2009-02-02, 03:00:05,VALID,1009.01,VALID,0,VALID,91.6768,VALID,0,VALID,22.0382,VALID,333,VALID,0,
2009-02-02, 03:01:05,VALID,1009.01,VALID,0,VALID,91.6768,VALID,0,VALID,22.017,VALID,333,VALID,0,
2009-02-02, 03:02:05,VALID,1008.99,VALID,0,VALID,91.6692,VALID,0,VALID,21.9781,VALID,333,VALID,0,
2009-02-02, 03:03:05,VALID,1008.99,VALID,0,VALID,91.6692,VALID,0,VALID,22.0382,VALID,333,VALID,0,
2009-02-02, 03:04:05,VALID,1009.02,VALID,0,VALID,91.6768,VALID,0,VALID,22.0365,VALID,333,VALID,0,
2009-02-02, 03:05:05,VALID,1009.01,VALID,0,VALID,91.6692,VALID,0,VALID,22.0771,VALID,333,VALID,0.0183594,
2009-02-02, 03:06:05,VALID,1009.04,VALID,0,VALID,91.6692,VALID,0,VALID,22.056,VALID,333,VALID,0.188672,
2009-02-02, 03:07:05,VALID,1009.04,VALID,0,VALID,91.6463,VALID,0,VALID,22.0771,VALID,329,VALID,0.0402344,
2009-02-02, 03:08:05,VALID,1009.05,VALID,0,VALID,91.6616,VALID,0,VALID,22.0966,VALID,329,VALID,0,
2009-02-02, 03:09:05,VALID,1009.04,VALID,0,VALID,91.6844,VALID,0,VALID,22.0966,VALID,329,VALID,0.0335938,
2009-02-02, 03:10:05,VALID,1009.06,VALID,0,VALID,91.6768,VALID,0,VALID,22.0966,VALID,329,VALID,0,
2009-02-02, 03:11:05,VALID,1009.05,VALID,0,VALID,91.6539,VALID,0,VALID,22.056,VALID,329,VALID,0,
2009-02-02, 03:12:05,VALID,1009.05,VALID,0,VALID,91.6616,VALID,0,VALID,22.0771,VALID,329,VALID,0,
2009-02-02, 03:13:05,VALID,1009.05,VALID,0,VALID,91.6692,VALID,0,VALID,22.0754,VALID,328,VALID,0.0871094,
2009-02-02, 03:14:05,VALID,1009.06,VALID,0,VALID,91.6768,VALID,0,VALID,22.0949,VALID,268,VALID,0.342969,
2009-02-02, 03:15:05,VALID,1009.08,VALID,0,VALID,91.6616,VALID,0,VALID,22.1144,VALID,268,VALID,0.00429688,
2009-02-02, 03:16:05,VALID,1009.06,VALID,0,VALID,91.6539,VALID,0,VALID,22.1339,VALID,293,VALID,0.231641,
2009-02-02, 03:17:05,VALID,1009.09,VALID,0,VALID,91.6616,VALID,0,VALID,22.1339,VALID,293,VALID,0.0105469,
2009-02-02, 03:18:05,VALID,1009.08,VALID,0,VALID,91.6616,VALID,0.105969,VALID,22.155,VALID,293,VALID,0,
2009-02-02, 03:19:05,VALID,1009.09,VALID,0,VALID,91.6616,VALID,0,VALID,22.1339,VALID,293,VALID,0,
2009-02-02, 03:20:05,VALID,1009.11,VALID,0,VALID,91.6387,VALID,0,VALID,22.1728,VALID,293,VALID,0,
2009-02-02, 03:21:05,VALID,1009.11,VALID,0,VALID,91.6616,VALID,0,VALID,22.194,VALID,293,VALID,0.009375,
2009-02-02, 03:22:05,VALID,1009.13,VALID,0,VALID,91.6311,VALID,0.105969,VALID,22.1923,VALID,274,VALID,0.2625,
2009-02-02, 03:23:05,VALID,1009.12,VALID,0,VALID,91.6463,VALID,0,VALID,22.1533,VALID,203,VALID,0.340234,
2009-02-02, 03:24:05,VALID,1009.09,VALID,0,VALID,91.6539,VALID,0,VALID,22.1533,VALID,203,VALID,0.373437,
2009-02-02, 03:25:05,VALID,1009.09,VALID,0,VALID,91.6692,VALID,0,VALID,22.155,VALID,203,VALID,0.324219,
2009-02-02, 03:26:05,VALID,1009.11,VALID,0,VALID,91.6387,VALID,0,VALID,22.155,VALID,203,VALID,0.277734,
2009-02-02, 03:27:05,VALID,1009.08,VALID,0,VALID,91.6539,VALID,0.105969,VALID,22.1533,VALID,203,VALID,0.444531,
2009-02-02, 03:28:05,VALID,1009.1,VALID,0,VALID,91.6463,VALID,0,VALID,22.194,VALID,205,VALID,0.530078,
2009-02-02, 03:29:05,VALID,1009.1,VALID,0,VALID,91.6311,VALID,0.105969,VALID,22.2134,VALID,210,VALID,0.475781,
2009-02-02, 03:30:05,VALID,1009.12,VALID,0,VALID,91.6387,VALID,0,VALID,22.2134,VALID,210,VALID,0.178516,
2009-02-02, 03:31:05,VALID,1009.14,VALID,0,VALID,91.6463,VALID,0,VALID,22.2118,VALID,210,VALID,0.215234,
2009-02-02, 03:32:05,VALID,1009.13,VALID,0,VALID,91.6158,VALID,0,VALID,22.2134,VALID,210,VALID,0,
2009-02-02, 03:33:05,VALID,1009.17,VALID,0,VALID,91.6387,VALID,0,VALID,22.2312,VALID,210,VALID,0.100781,
2009-02-02, 03:34:05,VALID,1009.15,VALID,0,VALID,91.6158,VALID,0,VALID,22.2719,VALID,210,VALID,0,
2009-02-02, 03:35:05,VALID,1009.16,VALID,0,VALID,91.6234,VALID,0,VALID,22.2312,VALID,210,VALID,0,
2009-02-02, 03:36:05,VALID,1009.18,VALID,0,VALID,91.6158,VALID,0,VALID,22.2719,VALID,210,VALID,0,
2009-02-02, 03:37:05,VALID,1009.12,VALID,0,VALID,91.6005,VALID,0.105969,VALID,22.2702,VALID,210,VALID,0,
2009-02-02, 03:38:05,VALID,1009.12,VALID,0,VALID,91.6234,VALID,0,VALID,22.2702,VALID,210,VALID,0,
2009-02-02, 03:39:05,VALID,1009.15,VALID,0,VALID,91.6158,VALID,0,VALID,22.3108,VALID,210,VALID,0,
2009-02-02, 03:40:05,VALID,1009.12,VALID,0,VALID,91.6005,VALID,0,VALID,22.3091,VALID,210,VALID,0,
2009-02-02, 03:41:05,VALID,1009.17,VALID,0,VALID,91.5929,VALID,0,VALID,22.3286,VALID,210,VALID,0,
2009-02-02, 03:42:05,VALID,1009.15,VALID,0,VALID,91.5929,VALID,0,VALID,22.3481,VALID,248,VALID,0.161719,
2009-02-02, 03:43:05,VALID,1009.14,VALID,0,VALID,91.5929,VALID,0,VALID,22.3481,VALID,249,VALID,0.20625,
2009-02-02, 03:44:05,VALID,1009.11,VALID,0,VALID,91.6005,VALID,0.105969,VALID,22.387,VALID,254,VALID,0,
2009-02-02, 03:45:05,VALID,1009.13,VALID,0,VALID,91.6005,VALID,0.105969,VALID,22.387,VALID,255,VALID,0.000390625,
2009-02-02, 03:46:05,VALID,1009.13,VALID,0,VALID,91.57,VALID,0.105969,VALID,22.4065,VALID,255,VALID,0,
2009-02-02, 03:47:05,VALID,1009.14,VALID,0,VALID,91.57,VALID,0,VALID,22.387,VALID,266,VALID,0,
2009-02-02, 03:48:05,VALID,1009.17,VALID,0,VALID,91.5777,VALID,0,VALID,22.4065,VALID,266,VALID,0,
2009-02-02, 03:49:05,VALID,1009.17,VALID,0,VALID,91.57,VALID,0,VALID,22.4082,VALID,266,VALID,0,
2009-02-02, 03:50:05,VALID,1009.19,VALID,0,VALID,91.5472,VALID,0,VALID,22.387,VALID,266,VALID,0,
2009-02-02, 03:51:05,VALID,1009.2,VALID,0,VALID,91.57,VALID,0.105969,VALID,22.387,VALID,266,VALID,0,
2009-02-02, 03:52:05,VALID,1009.21,VALID,0,VALID,91.5548,VALID,0,VALID,22.3887,VALID,266,VALID,0,
2009-02-02, 03:53:05,VALID,1009.21,VALID,0,VALID,91.5624,VALID,0.105969,VALID,22.3676,VALID,266,VALID,0,
2009-02-02, 03:54:05,VALID,1009.23,VALID,0,VALID,91.5624,VALID,0,VALID,22.3481,VALID,266,VALID,0,
2009-02-02, 03:55:05,VALID,1009.23,VALID,0,VALID,91.5548,VALID,0,VALID,22.3676,VALID,266,VALID,0,
2009-02-02, 03:56:05,VALID,1009.27,VALID,0,VALID,91.5395,VALID,0.105969,VALID,22.3676,VALID,266,VALID,0,